Regional Weather Roundup
Issued by NWS

Home | Current Version | Previous Version | Graphics & Text | Print | Product List | Glossary On
Versions: 1 2 3 4 5 6 7 8 9 10 11 12 13 14 15 16 17 18 19 20 21 22 23 24 25 26 27 28 29 30 31 32 33 34 35 36 37 38 39 40 41 42 43 44 45 46 47 48 49 50
000
ASUS45 KBOI 030910
RWRID

IDAHO REGIONAL WEATHER ROUNDUP
NATIONAL WEATHER SERVICE BOISE ID
300 AM MDT FRI JUL 03 2015

NOTE: "FAIR" INDICATES FEW OR NO CLOUDS BELOW 12000 FEET
WITH NO SIGNIFICANT WEATHER AND/OR OBSTRUCTIONS TO VISIBILITY

IDZ012-014-031000-
SOUTHWEST IDAHO


CITY           SKY/WX    TMP DP  RH WIND       PRES   REMARKS
BOISE          CLEAR     74  48  39 SW3       29.90S
CALDWELL       CLEAR     72  43  35 W8        29.90S
MOUNTAIN HOME  CLEAR     76  41  28 W14       29.90R
$$

IDZ016-017-031000-
SOUTHCENTRAL IDAHO


CITY           SKY/WX    TMP DP  RH WIND       PRES   REMARKS
BURLEY         CLEAR     70  45  40 SW12      29.97S
JEROME         CLEAR     72  44  36 S7        29.98R
TWIN FALLS     CLEAR     78  39  24 S15       29.95S
$$

IDZ019>023-031000-
SOUTHEAST IDAHO


CITY           SKY/WX    TMP DP  RH WIND       PRES   REMARKS
IDAHO FALLS    CLEAR     55  51  86 N7        30.03S
POCATELLO      CLEAR     66  44  45 E6        30.00S
REXBURG        CLEAR     58  51  78 NE6       30.06S
$$

IDZ006-010-011-018-031-032-031000-
CENTRAL IDAHO MOUNTAINS


CITY           SKY/WX    TMP DP  RH WIND       PRES   REMARKS
MCCALL         CLEAR     59  47  64 CALM      30.09S
HAILEY         CLEAR     68  43  40 NW10      30.09S
STANLEY          N/A     47  36  65 S5        30.23S
SALMON         CLEAR     57  43  58 CALM      30.03R
CHALLIS        CLEAR     66  40  38 SE5       30.09S
$$

IDZ002-004-006-007-026-031000-
NORTHERN IDAHO


CITY           SKY/WX    TMP DP  RH WIND       PRES   REMARKS
LEWISTON       CLEAR     77  41  27 S5        29.86R
LOWELL           N/A     63  51  65 N3        29.95R
COEUR D`ALENE  CLEAR     66  52  59 E5        29.92R
MULLAN PASS    CLEAR     65  38  36 NW3       30.17F
$$


USA.gov is the U.S. government's official web portal to all federal, state and local government web resources and services.